This demonstration page uses our WeatherBlox Daily Observations layout. Learn more.

Left ArrowRight Arrow

Hourly Observations for June 29, 2022

Temp ( °F °C ) Dew Point ( °F °C ) Humidity (%) Winds ( mph kmh ) Pressure ( in mb ) Visibility ( mi km ) Precip ( " mm )
12:53 am 00:53 Clear 55 12.8 52 11.1 90 90 Calm 30.22 1023 10 16 0.00 0.00
1:53 am 01:53 Clear 54 12.2 51 10.6 90 90 Calm 30.22 1023 10 16 0.00 0.00
2:53 am 02:53 Clear 53 11.7 50 10 89 89 Calm 30.22 1023 10 16 0.00 0.00
3:53 am 03:53 Clear 52 11.1 50 10 93 93 Calm 30.22 1023 10 16 0.00 0.00
4:53 am 04:53 Clear 51 10.6 49 9.4 92 92 Calm 30.22 1023 10 16 0.00 0.00
5:53 am 05:53 Clear 51 10.6 49 9.4 92 92 Calm 30.23 1024 10 16 0.00 0.00
6:53 am 06:53 Sunny 50 10 48 8.9 93 93 Calm 30.25 1024 10 16 0.00 0.00
7:53 am 07:53 Sunny 59 15 55 12.8 87 87 Calm 30.25 1024 10 16 0.00 0.00
8:53 am 08:53 Sunny 65 18.3 56 13.3 73 73 Calm 30.27 1025 10 16 0.00 0.00
9:53 am 09:53 Sunny 72 22.2 54 12.2 53 53 Calm 30.27 1025 10 16 0.00 0.00
10:53 am 10:53 Sunny 76 24.4 51 10.6 42 42 SSW 3 6 30.27 1025 10 16 0.00 0.00
11:53 am 11:53 Sunny 79 26.1 51 10.6 38 38 Calm 30.26 1025 10 16 0.00 0.00
12:53 pm 12:53 Sunny 80 26.7 48 8.9 33 33 Calm 30.27 1025 10 16 0.00 0.00
1:53 pm 13:53 Sunny 82 27.8 48 8.9 31 31 ESE 3 6 30.25 1025 10 16 0.00 0.00
2:53 pm 14:53 Sunny 84 28.9 48 8.9 29 29 N 5 7 30.24 1024 10 16 0.00 0.00
3:53 pm 15:53 Sunny 84 28.9 51 10.6 32 32 WNW 6 9 30.23 1024 10 16 0.00 0.00
4:53 pm 16:53 Sunny 84 28.9 48 8.9 29 29 Calm 30.22 1023 10 16 0.00 0.00
5:53 pm 17:53 Sunny 85 29.4 49 9.4 29 29 WNW 5 7 30.20 1023 10 16 0.00 0.00
6:53 pm 18:53 Sunny 86 30 50 10 29 29 NNW 5 7 30.19 1022 10 16 0.00 0.00
7:53 pm 19:53 Sunny 77 25 58 14.4 52 52 Calm 30.19 1022 10 16 0.00 0.00
8:53 pm 20:53 Sunny 71 21.7 58 14.4 63 63 Calm 30.20 1023 10 16 0.00 0.00
9:53 pm 21:53 Clear 66 18.9 58 14.4 75 75 Calm 30.21 1023 10 16 0.00 0.00
10:53 pm 22:53 Clear 64 17.8 57 13.9 78 78 Calm 30.23 1024 10 16 0.00 0.00
11:53 pm 23:53 Clear 62 16.7 57 13.9 84 84 Calm 30.23 1024 10 16 0.00 0.00

Powered by AerisWeather